Location: Fatehalanka
(16.3139°N, 80.8379°E)
Time: 10:59:33
(UTC+00:00)

Cosmos 1452 Rocket - Pass Details

Date: 14 May 2026
Orbit: 763 x 770 km, 74.1° (Epoch: 6 June)

Event Time Altitude Azimuth Distance (km) Brightness Sun altitude
Rises 13:48:52 0° 196° (SSW) 3,214 6.6 -11.8°
Reaches altitude 10° 13:51:14 10° 197° (SSW) 2,289 5.9 -12.4°
Maximum altitude 13:56:26 77° 283° (WNW) 784 3.7 -13.5°
Drops below altitude 10° 14:01:37 10° 9° (N) 2,291 6.2 -14.6°
Sets 14:04:00 0° 11° (NNE) 3,218 6.9 -15.1°
